TimeEST,TemperatureF,Dew PointF,Humidity,Sea Level PressureIn,VisibilityMPH,Wind Direction,Wind SpeedMPH,Gust SpeedMPH,PrecipitationIn,Events,Conditions,WindDirDegrees,DateUTC
12:53 AM,34.0,23.0,64,30.38,10.0,South,3.5,-,N/A,,Clear,170,2012-11-15 05:53:00
1:53 AM,35.1,23.0,61,30.37,10.0,Calm,Calm,-,N/A,,Scattered Clouds,0,2012-11-15 06:53:00
2:53 AM,35.1,24.1,64,30.38,10.0,Calm,Calm,-,N/A,,Overcast,0,2012-11-15 07:53:00
3:53 AM,35.1,24.1,64,30.36,10.0,Variable,3.5,-,N/A,,Overcast,0,2012-11-15 08:53:00
4:53 AM,35.1,24.1,64,30.35,10.0,South,3.5,-,N/A,,Partly Cloudy,170,2012-11-15 09:53:00
5:53 AM,35.1,25.0,67,30.36,10.0,Variable,3.5,-,N/A,,Overcast,0,2012-11-15 10:53:00
6:53 AM,35.1,25.0,67,30.35,10.0,SSE,3.5,-,N/A,,Overcast,150,2012-11-15 11:53:00
7:53 AM,36.0,27.0,70,30.35,9.0,South,3.5,-,N/A,,Overcast,190,2012-11-15 12:53:00
8:53 AM,36.0,28.0,73,30.35,8.0,Variable,4.6,-,N/A,,Overcast,0,2012-11-15 13:53:00
9:53 AM,37.9,28.9,70,30.34,8.0,South,4.6,-,N/A,,Mostly Cloudy,170,2012-11-15 14:53:00
10:53 AM,42.1,32.0,67,30.35,8.0,South,5.8,-,N/A,,Mostly Cloudy,180,2012-11-15 15:53:00
11:53 AM,45.0,32.0,60,30.32,8.0,South,10.4,19.6,N/A,,Mostly Cloudy,190,2012-11-15 16:53:00
12:53 PM,46.9,30.9,54,30.30,10.0,South,10.4,-,N/A,,Mostly Cloudy,190,2012-11-15 17:53:00
1:53 PM,46.9,30.9,54,30.29,10.0,SSW,8.1,-,N/A,,Mostly Cloudy,200,2012-11-15 18:53:00
2:53 PM,48.0,32.0,54,30.28,10.0,Variable,6.9,-,N/A,,Mostly Cloudy,0,2012-11-15 19:53:00
3:53 PM,50.0,30.9,48,30.28,10.0,SSW,8.1,-,N/A,,Mostly Cloudy,200,2012-11-15 20:53:00
4:53 PM,46.9,30.9,54,30.28,10.0,Variable,4.6,-,N/A,,Partly Cloudy,0,2012-11-15 21:53:00
5:53 PM,45.0,32.0,60,30.30,10.0,South,3.5,-,N/A,,Partly Cloudy,190,2012-11-15 22:53:00
6:53 PM,43.0,32.0,65,30.30,10.0,Calm,Calm,-,N/A,,Clear,0,2012-11-15 23:53:00
7:53 PM,41.0,32.0,70,30.31,10.0,Variable,3.5,-,N/A,,Clear,0,2012-11-16 00:53:00
8:53 PM,39.9,33.1,77,30.31,10.0,Variable,4.6,-,N/A,,Clear,0,2012-11-16 01:53:00
9:53 PM,39.0,32.0,76,30.33,7.0,SSW,3.5,-,N/A,,Clear,200,2012-11-16 02:53:00
10:53 PM,37.9,33.1,83,30.34,6.0,Calm,Calm,-,N/A,,Haze,0,2012-11-16 03:53:00
11:53 PM,37.0,33.1,86,30.34,5.0,ESE,3.5,-,N/A,,Partly Cloudy,120,2012-11-16 04:53:00